Retour au catalogue

SL-16 DEB

ActifLEO
NORAD 23282·DEBRIS·🇷🇺 Russia

Lancé Dec 25, 1992 depuis Baikonur Cosmodrome

Loading…

Prochains Passages (prochaines 24 heures)

TLE

FraisSource: Space-Track

Époque: Sep 14, 2026, 23:33 UTC

1 23282U 92093JG  26257.98160066  .00010651  00000-0  18181-2 0  9992
2 23282  71.1681 251.1827 0037540 157.6723 233.6893 14.68640410687716

Suivez SL-16 DEB en temps réel avec AllMySat

Download on the App Store